{"data":{"norad_id":61642,"epoch":"2026-09-21T00:00:02.000160Z","epoch_age_seconds":148823,"freshness":"FRESH","line1":"1 61642U 24191X   26264.00002315  .00173877  00000+0  92155-3 0  9994","line2":"2 61642  42.9847  85.4103 0028065 286.2350 358.5663 15.78685713  5904","mean_motion":15.78685713,"eccentricity":0.0028065,"inclination_deg":42.9847,"raan_deg":85.4103,"arg_perigee_deg":286.235,"mean_anomaly_deg":358.5663,"bstar":0.00092155,"rev_number":590,"period_min":91.215115722023,"perigee_km":315.32539623917,"apogee_km":353.00153876325,"semimajor_km":6712.3004675012,"source":"CELESTRAK","updated_at":"2026-09-22T09:00:49.399150Z"}}